KILEMING2 Weather Reports


time (UTC)temp
C
wind
direction
speed
KPH
gust
KPH
rain 1hr
cm
rain 24hr
cm
rain mn
cm
humidity
%
barometer
mb
20260504034608 10 360 4.8 8.0 0.00 0.00 0.00 80 1007.9
20260504033057 11 360 4.8 8.0 0.00 0.00 0.00 78 1008.0
20260504031557 11 360 6.4 12.9 0.00 0.00 0.00 77 1008.1
20260504030052 11 360 6.4 12.9 0.00 0.00 0.00 76 1008.1
20260504024551 12 360 8.0 16.1 0.00 0.00 0.00 74 1008.1
20260504023051 11 360 6.4 12.9 0.00 0.00 0.00 74 1008.3
20260504021550 11 360 4.8 8.0 0.00 0.00 0.00 73 1008.2
20260504014556 12 360 4.8 6.4 0.00 0.00 0.00 70 1007.9
20260504013038 14 360 4.8 12.9 0.00 0.00 0.00 66 1007.9
20260504011536 16 360 9.7 16.1 0.00 0.00 0.00 62 1007.8
20260504010035 16 360 11.3 17.7 0.00 0.00 0.00 61 1007.7
20260504004534 17 360 6.4 14.5 0.00 0.00 0.00 60 1007.8
20260504003032 17 360 3.2 14.5 0.00 0.00 0.00 58 1007.8
20260504001535 18 360 6.4 17.7 0.00 0.00 0.00 56 1007.9
20260504000037 18 360 8.0 25.7 0.00 0.00 0.00 55 1008.5
20260503234530 18 360 8.0 25.7 0.00 0.00 0.00 53 1007.7
20260503233029 19 360 9.7 32.2 0.00 0.00 0.00 52 1008.0
20260503231528 19 360 12.9 30.6 0.00 0.00 0.00 51 1008.1
20260503230032 18 360 19.3 33.8 0.00 0.00 0.00 52 1008.2
20260503224526 18 360 16.1 41.8 0.00 0.00 0.00 52 1008.2
20260503223023 18 360 29.0 46.7 0.00 0.00 0.00 51 1008.3
20260503221523 18 360 27.4 45.1 0.00 0.00 0.00 51 1008.2
20260503220022 19 360 32.2 48.3 0.00 0.00 0.00 50 1008.4
20260503214536 18 360 25.7 49.9 0.00 0.00 0.00 51 1008.5
20260503213021 20 360 37.0 51.5 0.00 0.00 0.00 48 1008.5
20260503211518 18 360 27.4 46.7 0.00 0.00 0.00 51 1008.6
20260503210016 18 360 38.6 61.2 0.00 0.00 0.00 50 1008.8
20260503204516 18 360 37.0 51.5 0.00 0.00 0.00 51 1009.1
20260503203014 18 360 38.6 56.3 0.00 0.00 0.00 49 1009.6
20260503201510 18 360 33.8 51.5 0.00 0.00 0.00 51 1009.8
20260503200012 18 360 41.8 61.2 0.00 0.00 0.00 49 1009.9
20260503194506 18 360 41.8 59.5 0.00 0.00 0.00 48 1010.4
20260503193006 18 360 35.4 59.5 0.00 0.00 0.00 49 1010.6
20260503191514 17 360 38.6 54.7 0.00 0.00 0.00 48 1010.5
20260503190004 17 360 43.5 59.5 0.00 0.00 0.00 50 1010.8
20260503184626 16 360 37.0 61.2 0.00 0.00 0.00 50 1011.3
20260503183100 17 360 37.0 49.9 0.00 0.00 0.00 50 1011.7
20260503181611 16 360 37.0 51.5 0.00 0.00 0.00 51 1011.9
20260503180110 16 360 37.0 46.7 0.00 0.00 0.00 53 1012.5
20260503174555 16 360 29.0 40.2 0.00 0.00 0.00 56 1013.0
20260503173055 13 360 24.1 35.4 0.00 0.00 0.00 60 1013.7
20260503171539 13 360 19.3 33.8 0.00 0.00 0.00 62 1014.3
20260503081536 4 360 9.7 14.5 0.00 0.00 0.00 78 1016.9
20260503071520 4 360 8.0 12.9 0.00 0.00 0.00 79 1017.2
20260503054510 3 360 4.8 8.0 0.00 0.00 0.00 79 1018.0
20260503053003 3 360 3.2 6.4 0.00 0.00 0.00 78 1018.2
20260503051601 3 360 3.2 6.4 0.00 0.00 0.00 76 1018.3
20260503050058 4 360 3.2 6.4 0.00 0.00 0.00 76 1018.3
20260503044609 4 360 3.2 6.4 0.00 0.00 0.00 75 1018.4
20260503043059 4 360 3.2 4.8 0.00 0.00 0.00 75 1018.4
20260503041555 5 360 3.2 6.4 0.00 0.00 0.00 74 1018.5